Theta_e
308 308 308 307 307 307 307 307 308 308 308 309 309 309 310 310 310 310 310 311 311 311 312 313 313 313 313 313 313 313 314 314 315 315 316 317 318 318 318 317 317 317 320 323 323 324 326 329 339 344 347 352 353 354 355 357 359 355 353 355 353 349 345 346 348 347 346 343 343 346 350 352 350 351 351 351 351 351 352 352 352 353 352 351 352 352 352 353
310 309 309 308 308 308 308 308 307 308 308 308 308 309 309 310 310 310 310 310 311 311 312 312 313 313 312 313 313 313 314 314 315 316 317 320 322 322 319 318 317 317 319 323 322 323 325 328 337 344 347 350 351 351 353 355 358 356 351 352 353 350 344 342 343 342 342 342 340 344 351 350 350 351 351 351 351 351 353 353 352 353 353 353 352 352 353 353
311 310 310 309 309 309 308 308 309 308 308 308 308 308 308 309 309 310 310 310 310 311 311 312 312 312 312 312 313 313 313 314 315 318 320 323 325 324 322 319 317 317 319 322 323 324 325 325 332 343 348 349 349 350 351 352 354 355 351 350 350 346 342 340 341 340 340 341 341 346 349 348 350 351 350 350 350 351 353 353 353 354 354 354 353 353 353 354
312 311 311 310 310 310 309 309 309 309 309 308 308 308 308 308 309 309 310 310 310 310 311 312 312 312 312 312 313 313 313 314 316 320 324 325 324 323 323 320 317 319 320 321 324 325 327 325 328 340 347 346 346 347 347 348 349 350 350 351 347 342 342 341 341 341 340 341 343 346 348 349 351 350 350 349 351 352 352 352 353 353 353 354 354 354 354 354
312 312 312 311 311 311 310 310 309 309 310 310 309 309 309 308 308 309 309 309 310 310 311 311 312 312 311 312 312 312 312 315 320 325 326 324 322 319 320 320 318 320 321 323 325 325 328 327 329 339 343 343 343 344 344 346 347 346 347 348 345 342 342 342 341 341 340 341 344 345 348 350 350 350 349 349 352 352 351 352 350 350 351 352 353 354 354 354
312 312 312 312 311 311 311 311 311 310 310 310 310 310 310 309 309 309 308 309 309 310 311 312 312 312 311 312 312 312 313 316 321 324 325 325 322 318 318 318 319 322 324 325 325 326 330 331 334 340 341 340 341 342 343 344 345 347 346 343 342 341 341 341 340 340 340 340 342 344 348 349 348 349 350 349 350 349 349 351 350 349 349 350 352 353 354 354
312 312 312 312 312 312 312 312 312 311 311 311 311 310 310 310 310 310 309 309 309 309 310 311 312 312 311 311 311 313 313 316 320 321 321 322 323 321 318 317 320 324 325 325 326 326 331 336 337 338 338 339 340 340 341 343 344 346 346 342 342 340 339 340 339 339 340 339 341 344 347 348 348 349 350 349 347 347 349 350 350 351 351 350 351 352 353 354
312 312 312 313 313 313 312 313 313 312 312 312 312 311 311 311 311 311 310 309 309 309 310 311 312 311 311 311 311 312 313 317 320 319 319 321 323 322 319 319 322 326 326 325 327 327 330 337 339 337 336 338 340 338 340 342 342 343 344 342 341 339 337 337 336 336 338 339 340 343 345 346 347 348 349 348 348 349 350 350 352 353 352 352 351 351 353 353
312 312 312 312 313 313 313 313 314 313 313 313 312 312 312 311 311 311 311 311 310 309 310 311 311 311 311 310 311 312 316 319 320 319 320 321 322 323 321 321 323 326 327 326 326 326 328 332 335 336 335 334 336 335 336 338 337 338 340 338 336 335 334 333 333 334 337 339 339 340 343 344 345 347 349 348 349 350 351 351 352 353 354 353 353 351 351 352
312 312 312 312 312 313 313 314 314 314 314 314 314 313 313 313 312 311 311 311 311 309 309 310 310 311 310 310 312 314 318 320 320 321 321 321 321 322 322 322 323 325 326 325 325 325 326 327 328 331 330 330 332 333 333 335 335 334 333 333 331 330 329 328 329 333 337 338 337 339 340 339 341 347 350 349 350 351 351 353 353 353 353 353 353 352 352 351
311 311 311 312 312 312 313 314 314 315 315 315 315 315 315 313 312 311 311 312 311 310 310 310 310 310 310 310 312 315 319 319 320 323 323 322 322 322 322 323 322 323 323 323 322 323 323 323 323 326 329 329 330 331 332 333 334 332 330 328 326 325 325 326 329 335 339 339 335 337 339 339 341 346 349 350 351 350 351 353 353 354 354 353 353 353 353 352
309 309 310 310 311 311 312 313 314 315 315 316 316 317 316 314 312 311 311 312 312 311 310 310 309 309 309 309 312 317 320 319 319 322 323 323 323 322 322 322 322 323 323 323 323 322 321 321 321 326 330 330 330 331 331 331 329 327 326 326 326 325 326 326 331 337 340 338 334 337 341 343 344 344 348 350 351 351 351 353 353 354 354 354 354 354 354 353
307 307 308 308 309 310 311 312 313 314 315 316 317 318 316 313 311 311 311 312 312 312 311 310 309 309 309 310 314 318 319 319 319 320 321 320 322 323 323 323 322 322 322 323 324 323 322 321 321 323 326 330 332 331 331 330 326 326 325 326 326 326 327 327 331 338 340 338 335 336 337 342 347 346 348 351 351 351 351 353 353 354 354 354 354 354 354 354
306 306 306 306 307 308 310 310 311 312 314 316 318 317 314 311 311 311 312 313 312 312 310 310 310 309 309 312 316 317 318 318 319 319 320 320 321 322 324 325 324 322 322 323 324 324 323 322 321 322 324 328 331 331 331 329 326 327 325 326 326 323 325 329 332 339 341 336 337 337 335 340 349 349 349 350 351 352 351 352 352 353 354 353 354 354 354 354
306 306 306 305 306 307 308 309 310 311 313 316 317 314 311 311 313 314 315 315 314 312 311 310 310 310 312 314 314 316 317 318 319 320 321 320 321 322 325 326 326 325 324 324 324 323 323 322 323 327 328 327 328 329 329 326 327 328 323 324 327 323 324 327 331 338 342 337 336 337 336 340 350 349 349 351 350 352 351 352 352 352 353 352 354 354 353 354
306 305 305 305 305 306 307 308 308 310 312 315 314 311 312 315 317 318 319 319 319 315 311 311 310 311 315 316 315 318 318 319 320 320 321 320 320 323 326 327 326 326 325 325 324 323 324 324 326 329 329 328 328 327 326 324 326 330 324 321 324 323 323 326 329 336 340 337 335 338 340 346 353 349 348 351 350 351 351 352 352 351 352 352 353 353 353 354
305 304 305 305 305 305 307 307 307 309 311 314 312 311 315 318 318 320 321 319 320 317 313 315 317 315 316 318 317 319 320 320 321 322 323 323 321 322 326 327 327 326 325 325 325 325 325 326 326 328 328 329 328 326 325 322 322 326 325 322 324 324 322 324 330 335 339 337 336 341 343 347 352 349 348 350 350 350 351 351 352 351 352 352 353 353 353 354
304 304 304 305 305 305 306 306 307 308 311 312 310 312 316 317 318 322 322 318 317 318 317 320 321 317 318 320 318 318 320 320 323 324 325 325 324 322 323 327 328 328 326 327 327 327 326 325 326 327 328 327 328 326 323 322 321 322 322 322 322 323 323 324 327 334 340 339 338 342 344 347 350 349 349 349 349 350 350 351 351 351 351 352 352 352 352 353
303 304 304 304 305 306 306 306 306 307 310 312 311 313 316 315 316 322 322 316 314 318 322 323 320 318 318 320 318 318 320 321 323 325 326 326 326 324 322 325 327 326 325 326 326 325 325 324 324 324 325 326 327 326 324 324 324 324 324 323 322 322 323 325 327 333 340 339 339 342 342 347 350 349 349 349 349 349 349 350 350 350 351 351 351 351 352 352
303 303 304 304 305 305 306 306 306 307 310 311 311 313 314 313 315 317 316 314 314 316 319 319 319 319 320 320 319 320 320 321 323 324 326 327 327 325 321 322 324 324 324 325 324 322 323 323 323 323 324 325 327 326 326 325 325 325 324 324 323 322 322 325 328 332 339 339 340 342 341 346 351 350 349 349 349 349 349 349 350 350 350 350 351 350 351 352
303 303 303 303 304 305 305 306 305 308 310 310 310 312 311 310 311 312 310 312 315 315 315 316 317 317 318 319 320 320 320 321 321 324 326 327 328 325 321 321 322 323 323 323 322 322 323 322 322 323 325 327 327 327 326 325 325 325 324 323 322 322 322 325 327 330 337 340 340 343 342 345 350 349 349 349 348 349 349 349 349 349 350 349 350 350 351 351
302 303 303 303 304 303 305 305 306 309 310 309 310 311 309 308 309 310 309 310 313 313 314 315 315 315 316 318 318 318 318 320 321 323 326 326 326 324 321 321 322 323 322 322 323 323 322 321 322 323 325 326 327 327 326 325 325 324 323 322 320 322 323 324 327 328 333 339 341 343 342 343 349 349 348 349 349 348 348 349 349 349 349 349 349 349 350 350
302 302 302 303 303 303 304 304 307 311 309 308 311 311 309 308 309 310 310 311 313 313 313 314 314 315 316 317 317 317 318 319 320 321 325 325 324 323 322 321 322 323 321 321 322 322 320 322 323 323 324 325 325 326 325 324 324 324 323 321 320 323 322 322 326 328 332 338 341 343 341 341 345 348 349 348 348 348 348 348 349 349 349 349 349 349 350 350
302 302 302 302 302 303 303 303 308 311 308 308 311 310 309 309 309 310 310 312 313 312 314 315 315 314 316 317 316 317 319 318 318 321 324 325 323 322 321 321 322 322 322 321 322 321 321 322 322 323 325 325 324 324 324 324 322 322 323 321 321 323 323 323 326 329 332 336 339 341 338 339 343 347 348 348 347 347 347 348 348 348 349 348 349 349 349 350
302 302 302 302 302 303 303 304 308 308 306 309 311 309 309 309 309 310 310 314 316 314 315 316 315 315 316 316 316 317 318 317 318 321 323 325 324 322 322 322 322 323 322 321 321 321 321 322 322 323 324 324 324 324 324 323 321 321 322 323 323 324 324 325 325 326 325 327 337 339 333 336 342 343 346 346 347 347 345 346 347 347 348 348 348 348 348 349
301 302 302 302 302 302 303 303 305 305 305 308 309 309 310 309 309 310 311 316 319 316 316 317 316 317 317 315 315 316 317 318 318 319 320 324 326 324 323 322 322 323 322 322 322 322 321 322 323 324 324 323 324 323 323 323 320 319 322 324 324 323 324 324 324 324 322 324 336 338 333 335 338 338 344 345 346 346 344 344 345 346 347 347 346 347 348 348
301 302 301 301 302 302 303 303 303 303 304 307 308 309 310 310 309 311 313 318 322 319 317 317 317 318 317 315 315 316 317 318 318 318 319 322 326 326 324 323 322 322 322 322 321 321 324 324 323 324 324 322 322 322 323 324 320 319 323 324 325 324 323 324 323 322 325 327 330 332 333 333 334 336 339 343 345 346 344 344 344 344 345 346 346 347 347 347
301 301 301 301 302 302 302 302 303 303 304 306 306 308 310 309 310 312 315 320 324 322 318 317 316 317 316 316 316 316 317 317 318 318 318 320 324 324 323 323 322 322 322 321 319 322 325 324 324 324 323 322 322 322 324 323 321 322 323 324 325 324 324 325 324 322 326 325 321 326 326 326 337 348 341 340 344 344 344 343 343 343 343 345 345 346 347 347
301 301 301 302 301 301 302 302 302 303 304 304 305 308 309 309 311 314 317 320 321 321 320 318 317 316 315 315 315 316 317 317 318 318 317 320 323 323 323 322 322 322 323 321 321 324 326 324 324 323 323 323 322 323 324 323 323 323 323 325 324 323 323 325 324 323 324 322 318 322 323 320 333 348 343 338 340 341 343 342 341 342 342 343 345 344 346 347
301 301 301 301 301 302 302 302 303 303 303 303 304 307 308 310 314 316 319 321 319 320 320 319 318 316 314 314 314 315 316 317 318 318 317 319 322 322 323 323 322 323 323 322 322 324 325 325 325 325 324 324 323 323 322 322 323 323 322 323 322 322 324 324 326 325 320 320 320 321 323 321 324 336 341 339 339 339 340 341 340 340 340 341 343 343 345 346
301 301 301 302 302 302 301 303 306 305 303 303 304 307 309 313 317 318 319 319 318 320 320 318 317 315 315 315 315 315 315 316 317 317 317 319 320 321 322 323 323 323 323 322 322 323 324 325 326 326 325 325 325 323 322 322 322 322 322 321 320 320 321 319 321 322 316 318 324 323 323 323 320 328 341 341 340 340 339 339 339 339 339 340 342 343 344 344
301 301 301 302 301 302 303 306 308 306 304 302 304 308 311 313 315 316 317 317 319 320 318 316 315 315 316 316 316 316 315 316 317 318 319 319 319 320 321 323 323 322 320 320 321 322 322 324 325 325 325 325 325 323 323 322 321 322 321 319 318 316 317 316 316 318 318 320 329 327 322 322 321 329 342 343 341 341 339 338 339 338 338 339 340 341 342 344
301 301 302 302 302 305 306 306 306 307 306 304 305 310 314 315 315 314 314 316 318 317 314 314 314 314 316 317 318 318 316 316 317 318 319 320 321 321 321 323 323 323 323 321 319 320 320 322 324 324 325 325 324 323 321 320 321 321 318 318 316 314 315 316 315 318 320 322 328 328 324 324 325 332 341 342 341 341 339 339 338 338 338 338 339 340 341 343
300 301 302 302 303 307 307 305 305 306 308 308 309 313 314 314 317 316 313 314 315 314 313 313 313 315 317 318 319 319 317 316 317 318 320 321 321 321 321 322 322 324 327 323 319 319 318 321 324 323 324 325 324 324 322 323 322 320 321 320 315 317 319 317 317 320 320 321 324 325 327 328 328 337 345 340 339 340 339 340 340 339 339 337 338 339 340 341
301 301 301 302 305 307 305 304 303 305 309 311 312 314 312 311 315 316 314 314 314 313 313 313 314 316 317 318 319 318 317 317 318 317 319 320 320 321 321 322 322 323 325 321 319 320 318 320 325 324 324 324 325 325 323 324 322 320 322 319 315 321 325 320 323 328 325 322 322 324 332 338 338 344 347 338 338 341 339 340 341 339 340 338 337 338 339 340
301 301 301 303 306 305 303 304 304 304 309 312 312 312 311 310 313 314 314 314 313 313 313 313 315 315 316 318 318 317 315 317 318 316 317 319 320 322 322 322 322 322 322 321 321 321 317 319 325 324 324 325 324 326 324 322 322 321 318 317 319 324 322 317 320 325 321 319 322 324 328 333 336 339 342 338 339 342 340 341 340 339 341 340 338 338 338 340
301 301 302 305 305 304 303 304 305 305 308 312 313 312 310 310 312 313 314 314 313 313 313 314 315 315 315 317 316 315 315 316 317 315 316 318 318 320 322 322 322 321 322 322 322 323 320 320 325 324 324 324 323 324 324 323 325 322 316 317 322 322 320 321 319 317 317 318 323 326 323 323 328 336 346 344 339 341 341 341 341 339 339 339 340 340 338 339
302 301 302 304 304 303 303 304 305 306 309 312 314 314 313 313 313 314 313 313 314 314 314 313 314 314 315 315 314 315 315 315 316 315 315 317 318 320 321 321 321 321 322 321 322 325 322 319 323 326 324 324 324 323 323 324 323 322 321 321 322 318 316 321 320 315 315 316 319 324 324 324 327 335 345 343 339 342 341 341 341 340 340 339 340 341 340 339
302 302 302 303 303 303 304 304 305 308 311 313 313 314 314 314 313 314 313 313 314 315 314 313 314 315 315 315 314 315 315 315 315 315 315 317 319 319 319 319 321 321 321 321 322 325 323 319 320 325 324 324 325 323 320 322 323 324 323 320 322 321 316 318 320 318 317 318 319 319 320 324 331 340 347 344 342 342 339 341 342 340 340 339 339 341 341 340
302 303 303 303 303 304 304 305 308 311 313 314 313 313 313 313 313 314 314 315 315 316 316 315 315 315 315 315 314 315 315 315 316 315 315 316 317 317 318 319 320 320 320 321 322 323 323 320 319 323 325 322 322 323 322 322 323 322 320 317 318 320 319 318 320 320 321 323 325 319 315 325 341 348 350 350 345 341 339 340 341 339 339 340 340 341 341 341
303 303 304 302 303 304 304 307 310 311 312 313 313 313 313 313 313 314 314 314 314 315 315 315 314 314 314 314 314 314 315 315 316 316 316 316 316 316 316 317 317 318 319 320 321 321 322 321 319 319 320 318 320 325 325 324 325 323 321 320 317 318 319 316 317 321 321 322 328 324 314 322 341 344 346 351 346 341 340 339 339 339 338 339 340 340 341 342
303 303 304 302 303 304 305 308 309 309 309 309 309 310 311 311 312 312 314 314 313 314 314 313 313 313 313 313 314 314 315 315 315 316 316 316 316 316 316 316 317 318 319 319 320 321 323 324 320 317 319 321 323 325 325 324 326 325 324 323 321 321 320 314 316 322 320 319 328 327 317 325 346 346 343 351 348 338 336 336 338 337 337 339 340 340 341 342
303 303 303 302 304 304 306 308 308 307 307 306 307 308 309 310 309 310 312 311 311 313 313 312 312 312 312 313 313 314 315 315 315 316 316 317 317 317 315 315 317 318 318 320 324 326 325 323 319 317 321 323 323 324 325 325 326 324 324 325 323 322 320 319 327 330 322 318 322 322 316 326 351 354 345 348 347 337 333 333 335 335 336 339 339 339 341 341
303 303 303 303 303 305 307 308 307 306 306 306 307 307 308 309 309 309 309 309 309 310 311 312 312 312 313 314 314 315 315 316 317 317 317 317 317 317 315 314 316 318 318 322 328 326 323 322 320 318 319 320 321 321 320 322 324 323 324 325 323 325 322 322 330 328 320 319 321 318 315 324 352 360 348 349 353 348 341 334 332 335 335 337 339 340 341 341
303 303 303 303 303 305 306 307 306 305 306 306 306 306 307 308 309 309 308 309 309 309 309 311 312 311 312 313 314 314 314 316 317 317 316 315 316 316 314 313 315 317 320 326 328 324 321 323 321 318 317 318 318 319 321 323 321 322 326 324 323 326 321 320 324 320 320 324 323 320 321 330 349 353 340 344 354 353 345 334 331 335 334 335 338 338 339 341
303 303 303 303 303 304 304 305 305 304 305 306 306 306 306 307 308 308 309 309 309 309 309 310 311 311 312 312 313 313 313 314 314 315 315 314 314 314 313 313 314 317 322 325 322 321 324 326 324 321 320 319 318 324 333 333 322 319 323 322 323 325 321 324 324 319 324 326 321 328 336 329 332 343 341 341 341 337 340 337 334 335 333 335 338 336 339 341
303 303 303 304 304 304 304 305 305 304 305 305 305 306 306 306 307 308 308 308 308 308 308 310 310 310 310 311 312 312 313 313 313 314 314 313 313 313 312 313 315 318 321 320 318 320 324 325 325 325 324 322 321 325 334 333 322 320 323 321 323 325 322 322 320 321 330 324 316 335 350 328 325 344 348 344 339 332 333 334 332 332 333 336 337 336 339 340
303 303 303 304 304 304 304 304 304 305 305 305 305 306 306 307 307 307 308 308 308 308 308 309 309 309 309 310 311 313 312 312 313 313 313 312 312 312 312 312 315 317 316 315 315 318 322 324 325 324 323 323 323 323 327 330 326 323 324 322 322 324 322 320 321 325 331 323 317 336 348 331 329 338 337 339 340 334 330 328 327 330 332 336 336 337 339 340
303 303 303 304 304 304 304 304 304 305 304 304 306 306 306 306 307 307 307 307 308 308 308 309 309 308 308 308 310 312 312 312 312 312 312 312 312 312 312 313 314 315 313 313 315 316 321 327 328 323 322 322 322 323 323 325 325 324 324 324 323 324 322 320 323 326 327 325 327 338 342 334 331 332 331 332 330 328 327 328 329 331 332 334 335 337 339 340
303 303 303 304 304 304 304 304 304 304 303 304 305 305 305 306 306 306 306 306 307 308 308 308 308 308 308 308 309 310 311 311 312 311 311 312 312 312 312 313 314 313 312 313 316 316 321 328 328 323 322 322 322 323 323 322 324 323 323 325 323 323 324 321 321 325 325 324 327 333 336 335 333 334 334 328 324 328 333 331 331 333 333 334 335 337 340 341
303 303 303 303 303 304 304 304 304 303 303 304 305 305 305 305 305 305 305 306 307 308 308 308 308 308 308 308 308 309 309 310 311 311 311 311 311 311 312 313 312 312 313 314 315 316 320 325 326 323 324 323 321 322 323 322 323 321 321 325 323 321 323 321 321 325 324 324 326 327 327 332 336 337 336 331 330 342 348 337 330 332 334 334 335 337 340 341
303 303 303 303 303 304 304 303 303 303 303 304 305 305 305 305 306 306 305 306 307 308 308 308 308 309 308 308 308 309 310 311 311 311 311 311 311 310 311 312 311 312 313 314 315 317 319 322 324 323 325 325 322 321 322 320 321 319 320 324 323 322 323 322 324 327 324 322 324 322 323 329 334 334 333 333 336 343 346 337 332 335 337 336 336 337 338 340
Wind_Speed
16 16 16 16 16 16 16 16 16 16 15 15 16 16 17 17 17 17 18 18 18 19 19 19 19 19 18 18 20 20 21 22 21 22 27 22 13 15 16 14 12 14 16 18 18 15 18 23 25 23 21 21 19 17 18 18 16 10 4 3 4 5 4 3 3 3 4 8 10 16 22 18 13 13 15 13 14 24 20 9 14 8 5 18 19 27 33 28
17 17 17 17 17 17 17 17 17 17 17 16 16 17 17 17 18 18 18 18 19 19 19 19 18 18 18 18 19 19 21 21 23 27 24 13 8 14 16 16 17 19 20 21 21 19 20 25 27 24 21 19 16 15 14 14 16 11 3 2 5 5 2 2 4 4 1 8 11 16 25 23 18 20 21 14 12 19 14 11 14 12 14 19 23 31 30 28
18 17 17 17 17 17 17 18 18 18 18 18 18 18 18 18 18 18 18 19 19 20 20 19 18 17 17 18 18 18 20 21 26 25 11 3 6 13 15 18 24 25 24 23 21 19 18 18 24 26 21 15 15 14 11 10 13 13 8 3 7 6 4 8 9 10 8 9 14 16 23 21 22 25 21 15 14 13 11 15 17 18 23 25 29 32 30 31
18 18 18 18 18 18 18 18 18 19 19 19 19 19 18 18 18 18 18 19 20 20 21 20 18 16 16 17 16 16 18 19 20 12 0 2 4 8 13 19 28 29 25 22 17 16 15 14 21 26 20 12 14 13 10 12 9 9 11 6 6 3 4 13 12 16 13 13 19 19 18 16 24 26 21 21 14 5 11 24 27 28 32 33 34 33 32 33
19 19 19 19 19 19 19 19 19 19 18 19 19 19 20 19 18 18 18 19 19 20 21 21 19 16 15 17 15 14 13 10 6 1 3 3 3 2 8 19 30 30 24 19 14 15 16 17 22 24 16 8 10 8 10 20 14 4 10 12 11 5 5 14 12 14 12 14 20 18 16 17 23 21 24 28 14 10 21 31 33 35 39 39 39 36 34 33
20 20 20 20 20 20 20 20 20 20 20 19 19 19 20 20 19 18 18 19 19 20 21 21 20 16 16 16 15 14 7 5 6 2 4 3 6 3 4 18 29 27 22 17 14 17 19 18 21 21 12 6 8 9 10 18 17 7 8 12 16 13 10 17 14 13 13 11 15 18 20 24 22 14 27 32 18 23 31 33 33 35 40 41 41 39 36 36
20 20 20 20 20 21 20 21 21 21 21 21 20 20 20 20 20 19 19 18 19 20 20 21 20 17 17 15 14 13 10 15 14 7 10 9 2 4 5 18 26 24 21 18 16 18 20 20 21 19 10 5 7 11 12 13 15 11 8 9 15 16 16 23 21 17 18 17 18 22 22 23 20 13 24 24 14 23 30 32 34 35 40 41 41 41 39 38
21 21 21 21 21 21 21 21 21 21 22 22 22 22 21 21 20 20 19 19 19 19 21 20 19 18 16 15 13 11 16 20 13 4 11 13 6 4 8 18 23 22 19 18 18 17 19 21 22 17 8 8 7 7 10 9 10 10 10 11 14 18 20 26 27 23 23 24 24 24 20 24 27 21 23 18 12 23 31 33 34 36 39 40 42 42 39 37
21 22 22 22 22 22 22 22 22 22 22 22 22 22 22 21 20 20 19 19 19 19 21 20 18 18 15 14 9 9 17 16 7 2 10 14 10 8 11 17 20 21 19 18 18 18 20 21 23 19 8 8 9 8 7 5 6 9 12 15 14 17 23 24 23 23 24 24 25 22 16 23 27 20 13 14 19 27 33 35 36 38 39 39 41 41 41 39
22 22 22 23 23 23 23 23 23 23 23 23 23 23 22 22 21 20 19 19 19 19 20 19 19 17 16 14 5 5 14 9 3 3 6 11 10 10 13 16 18 19 19 19 19 21 23 21 22 22 12 9 9 11 10 7 8 10 13 16 16 19 24 21 19 23 22 21 27 23 13 17 23 17 6 12 27 32 35 37 38 39 39 39 39 39 41 40
22 22 23 23 23 24 23 23 24 24 24 24 25 24 23 22 21 20 20 19 19 19 20 20 18 16 16 14 10 12 14 13 11 5 4 7 6 9 14 17 18 18 17 17 18 19 20 20 19 16 10 9 9 10 11 10 11 14 13 13 16 17 18 16 16 19 16 15 26 23 9 11 19 14 11 23 34 35 38 38 38 39 38 39 38 37 39 39
22 23 23 24 24 24 24 24 24 24 24 25 25 24 23 22 21 21 21 19 18 19 20 19 17 16 16 17 24 25 16 13 13 9 7 6 6 8 12 19 21 18 17 16 15 14 14 17 19 17 11 8 5 5 8 9 9 11 9 7 10 10 9 11 11 17 16 10 24 23 8 7 12 10 18 33 37 38 40 38 38 38 36 37 37 36 37 37
24 24 25 25 25 25 25 25 24 24 24 24 25 24 23 22 21 21 20 19 17 18 19 18 17 17 13 18 31 29 18 15 15 16 14 11 11 10 11 19 23 22 20 17 15 13 13 15 19 23 20 10 3 5 10 13 11 8 5 3 5 8 7 8 7 17 17 12 29 24 4 8 8 8 24 35 38 38 36 36 37 35 34 36 36 36 36 37
27 27 28 27 27 26 25 25 26 26 24 25 24 23 22 22 21 19 18 17 17 17 18 16 16 14 14 23 31 27 22 22 24 25 21 16 16 14 13 16 21 23 23 20 17 14 14 16 18 20 21 17 12 11 12 11 7 4 3 2 2 3 5 7 3 13 12 14 34 24 5 9 6 10 28 35 40 40 34 34 36 35 34 35 35 36 37 38
28 28 29 29 29 28 27 27 27 27 25 25 24 22 21 20 17 14 13 14 14 15 16 15 14 11 13 25 29 21 19 21 25 25 22 20 20 18 17 17 17 20 22 23 20 18 16 16 18 14 12 16 14 9 7 4 3 1 2 4 1 3 4 7 5 11 13 12 26 17 2 6 4 13 30 36 40 39 34 33 35 35 34 35 35 36 37 38
28 28 28 29 30 30 30 29 29 28 25 24 24 20 17 16 13 11 9 7 7 9 10 11 13 10 8 16 18 13 16 19 20 19 19 22 24 24 21 18 17 17 20 21 20 21 18 14 16 14 10 8 5 3 3 4 4 2 3 4 3 4 3 4 7 10 15 11 15 11 4 4 3 14 28 33 37 35 32 32 34 35 35 35 35 35 36 36
29 29 28 28 28 29 30 29 31 30 26 25 23 16 13 12 10 6 4 7 7 2 5 5 6 7 11 15 12 11 12 12 12 13 15 19 24 27 23 21 21 19 20 21 21 21 17 13 12 10 9 5 3 4 3 5 5 3 2 3 5 5 3 2 6 6 10 11 11 7 6 7 6 17 27 31 35 32 29 31 34 35 35 35 35 34 35 36
30 30 30 28 28 28 28 29 31 30 28 25 21 15 10 9 8 3 1 9 11 3 2 5 7 2 11 16 15 15 11 7 6 8 10 12 19 27 27 23 22 20 17 16 17 18 15 12 8 4 4 5 4 6 6 6 5 3 4 3 4 4 3 4 5 3 7 9 10 7 6 8 8 16 25 31 35 31 29 32 34 35 35 35 35 34 36 37
31 32 31 30 29 28 28 28 29 31 29 22 16 13 8 8 7 3 4 13 11 3 4 7 12 5 8 10 11 13 12 8 8 10 11 10 13 25 29 25 23 19 12 6 8 12 12 6 6 7 5 7 6 7 9 6 3 5 5 4 4 5 4 4 4 5 7 7 8 7 8 9 11 15 20 27 33 29 27 29 30 32 33 34 35 36 37 39
32 32 32 32 30 28 28 27 28 30 27 19 16 12 8 12 8 3 15 26 22 15 16 17 20 22 23 21 17 14 13 13 12 12 12 9 12 22 28 25 20 15 9 5 5 9 12 6 6 9 6 6 6 6 8 7 6 6 4 4 5 5 7 3 4 7 6 8 8 7 8 10 16 18 18 26 29 23 22 24 26 30 32 34 35 37 39 41
34 33 33 33 30 29 27 27 29 26 20 19 17 11 12 15 7 8 24 31 26 19 23 27 28 33 37 35 30 22 16 14 15 17 12 9 13 18 23 21 11 7 8 9 7 6 10 8 8 8 6 6 7 6 7 7 8 7 5 6 6 6 8 3 3 7 3 7 8 5 7 10 16 17 18 23 23 19 24 26 27 32 33 35 37 38 41 42
35 34 35 34 32 31 26 27 29 19 17 19 13 10 13 16 10 11 17 19 28 27 27 31 32 38 42 40 37 30 18 13 17 21 17 13 17 17 18 17 8 5 7 7 6 4 6 9 9 8 6 6 6 6 7 7 7 6 5 5 6 7 7 4 4 5 3 5 5 5 7 10 14 16 17 22 22 24 33 36 35 37 35 35 38 39 41 40
33 33 35 34 34 33 26 28 24 12 17 18 6 9 15 16 14 16 13 12 26 29 27 31 33 40 43 39 35 27 18 15 18 23 20 17 21 23 19 14 9 7 6 7 8 7 6 8 9 8 7 7 6 6 6 6 5 5 5 4 7 8 4 4 4 4 5 6 6 7 6 6 8 11 13 22 27 26 33 38 37 40 40 41 43 44 43 41
31 31 32 34 35 34 29 27 16 9 19 14 2 9 15 15 14 18 16 9 14 17 22 28 29 36 40 33 25 23 25 23 20 24 24 21 22 22 18 16 11 8 8 9 11 11 8 6 9 10 8 9 9 8 7 6 6 6 7 7 8 10 7 6 4 3 1 4 4 7 3 1 7 10 10 16 21 20 24 28 28 34 40 43 44 44 45 45
28 28 30 32 33 34 32 23 10 13 21 8 2 10 13 14 13 16 14 6 8 10 13 16 19 27 29 21 17 23 25 23 26 30 27 25 24 17 13 17 13 8 11 11 9 11 10 7 10 11 9 10 10 9 9 7 5 7 8 10 12 12 7 5 3 5 3 5 2 7 4 4 6 13 13 12 14 15 17 21 24 31 35 36 38 40 43 45
27 27 27 29 32 33 31 22 15 22 22 7 7 13 13 12 10 12 7 2 5 5 2 4 9 11 12 17 20 20 11 14 32 38 28 23 28 20 10 10 9 9 13 8 4 5 7 7 8 9 10 12 11 9 10 8 5 7 6 8 11 11 7 6 1 2 2 5 4 7 7 4 5 11 13 12 15 17 16 17 22 30 33 34 37 39 42 44
28 26 26 27 30 33 32 27 25 26 19 11 13 15 13 10 8 8 4 2 5 4 4 4 6 3 6 18 28 20 3 6 20 33 34 26 27 25 12 7 7 8 9 6 4 4 7 10 9 10 10 10 10 9 9 9 7 8 4 5 8 8 7 8 4 4 5 4 4 4 4 3 4 9 14 16 17 17 15 16 19 26 33 36 39 41 44 46
29 27 26 26 27 30 33 31 29 23 15 15 19 16 11 9 7 3 2 2 3 2 3 3 4 2 6 19 32 20 1 6 8 20 39 31 23 22 12 9 10 8 10 9 6 4 8 12 13 13 11 8 9 9 9 10 8 8 4 4 7 7 7 6 5 5 4 3 5 6 4 3 4 6 11 15 16 16 17 19 19 24 33 37 39 42 45 47
32 27 27 27 26 26 29 31 29 22 16 19 20 14 10 8 4 2 2 2 3 1 1 4 2 3 10 17 25 17 3 3 1 10 31 30 23 17 8 12 12 7 11 12 9 5 6 13 17 13 10 9 7 8 10 11 9 7 4 4 6 5 4 4 5 4 2 3 7 9 6 4 6 4 8 10 13 16 17 18 18 24 35 39 41 44 45 47
33 28 28 31 29 26 29 30 28 22 19 21 19 13 10 5 2 3 3 3 3 3 1 3 1 4 11 10 11 13 6 4 4 9 23 23 25 17 6 12 12 4 6 9 11 8 3 10 16 11 11 10 8 8 9 11 12 6 3 4 7 5 2 1 2 4 2 4 8 12 9 7 6 5 7 10 13 17 16 15 16 22 32 39 42 44 46 46
34 30 29 32 33 31 30 28 23 19 18 19 17 12 6 2 3 3 6 3 3 3 2 3 5 5 4 3 3 7 5 5 3 8 13 11 15 12 4 8 8 4 4 6 9 9 6 6 7 7 14 14 8 8 10 10 12 7 4 4 4 5 3 3 1 3 4 7 7 11 10 8 8 6 6 11 17 21 19 18 20 21 28 38 43 45 46 47
33 31 29 32 34 27 22 22 19 14 13 13 12 7 1 0 1 5 5 5 3 1 4 3 4 6 5 5 2 5 5 4 2 6 10 9 9 10 9 7 7 7 7 8 6 6 8 8 4 5 13 15 9 7 8 7 8 8 5 6 4 3 2 5 5 2 5 7 6 9 8 7 9 7 8 14 18 22 21 22 25 26 31 40 44 46 46 47
32 30 29 31 28 17 13 19 21 15 8 6 6 2 3 2 4 5 4 4 1 2 5 5 8 9 6 4 3 5 3 3 3 3 9 11 9 11 12 9 8 8 5 7 7 4 4 6 7 7 7 12 12 8 7 6 7 9 7 6 6 5 5 6 5 3 4 5 5 7 7 4 5 5 11 16 18 23 26 30 34 36 40 45 47 49 48 47
31 29 30 30 20 11 13 21 25 19 8 3 3 2 3 5 5 2 5 6 4 5 7 7 10 9 4 3 4 4 3 5 5 2 5 9 9 9 10 10 11 7 4 5 5 7 7 6 9 11 7 9 13 11 9 7 6 8 7 7 7 6 5 4 3 3 5 5 5 4 5 5 5 6 11 15 19 26 33 37 40 41 44 46 47 46 45 46
31 28 31 29 13 9 21 27 27 22 10 4 2 3 5 6 2 0 2 3 4 5 9 9 7 5 3 3 3 2 3 4 6 5 4 7 9 9 10 11 12 8 5 5 4 5 10 8 7 10 9 9 11 10 10 8 5 6 6 7 8 7 5 3 4 5 4 3 4 3 4 5 5 5 8 12 17 21 27 33 35 33 34 35 36 39 43 46
32 28 30 22 9 13 28 29 26 20 10 4 2 5 5 3 1 1 1 3 3 6 11 8 3 3 3 3 3 7 10 6 2 3 4 6 8 10 10 8 12 13 8 6 3 3 7 7 3 6 7 9 12 10 11 11 6 3 6 8 7 7 7 6 5 1 1 3 5 2 3 4 2 5 6 9 13 15 18 22 23 24 27 28 30 37 42 46
31 32 29 15 11 23 30 22 20 15 7 2 3 5 2 2 2 1 2 3 2 6 7 4 3 3 3 3 3 7 10 7 4 4 2 4 5 9 11 7 10 15 11 7 4 2 5 5 3 8 9 12 16 12 9 11 10 4 5 7 4 4 7 5 3 3 4 6 5 2 5 5 4 5 5 6 10 12 15 16 16 19 22 24 30 39 44 47
30 33 25 9 16 29 25 18 16 9 2 1 5 6 2 2 5 5 5 5 4 4 3 0 2 2 2 3 4 7 10 5 4 6 3 3 3 6 10 9 9 13 14 11 6 3 4 4 6 9 12 10 11 10 7 9 12 7 5 8 6 5 7 5 4 6 7 6 5 3 4 5 6 5 5 8 11 12 14 15 15 16 17 22 30 39 44 46
28 29 16 8 22 28 21 17 11 5 5 2 4 4 3 4 7 10 11 10 4 2 2 2 2 2 3 4 5 7 7 5 5 5 3 2 4 3 2 5 8 12 18 16 7 4 5 4 6 6 11 9 5 7 8 9 11 5 3 6 5 4 6 6 4 4 5 5 4 3 3 4 6 6 8 10 12 13 14 14 15 16 20 27 34 38 41 42
25 19 10 15 26 25 18 10 3 8 3 2 3 3 4 6 8 13 16 12 3 1 2 2 2 4 3 5 8 6 4 5 6 4 2 3 5 6 9 6 4 4 14 19 14 7 4 5 6 4 5 9 5 6 11 11 9 7 5 7 6 2 3 4 4 3 4 5 3 3 5 6 6 5 9 11 12 13 14 15 15 17 24 33 38 40 40 42
22 8 9 21 26 22 19 7 5 2 1 2 2 4 7 7 8 14 20 18 9 4 4 4 4 5 4 5 7 5 4 6 5 4 3 4 5 2 9 13 9 7 5 12 13 10 5 3 6 6 4 6 6 7 11 12 11 10 8 8 8 5 4 4 6 2 2 5 5 4 6 8 5 5 8 10 10 12 13 14 14 16 26 36 41 42 41 42
14 6 14 25 24 22 19 6 3 5 2 4 7 7 9 9 8 10 16 19 13 7 6 5 5 6 6 5 6 6 5 5 6 5 4 3 4 3 12 24 17 9 5 4 6 9 8 4 5 9 8 7 8 9 10 13 13 11 9 7 6 5 5 7 7 3 2 3 3 3 5 8 6 6 9 9 10 11 13 14 13 16 27 35 39 41 40 42
10 15 22 24 23 21 14 3 4 6 3 8 12 12 12 9 7 9 9 10 9 5 5 4 5 5 4 2 3 4 4 3 5 5 4 5 3 4 16 29 23 12 6 4 5 4 4 5 6 8 6 5 8 7 4 7 10 9 9 8 8 9 8 7 5 4 4 4 3 3 6 7 5 5 8 9 7 7 10 15 16 19 27 34 37 38 38 41
17 22 21 21 21 15 8 2 3 5 5 9 11 10 12 9 8 10 9 9 8 5 5 4 2 4 3 1 2 2 3 3 1 3 3 3 5 10 21 29 22 10 6 6 6 6 4 3 5 6 6 6 6 6 5 4 6 5 6 10 13 14 10 5 2 3 4 6 7 6 7 6 4 4 3 5 5 4 7 15 20 21 25 29 31 33 34 37
17 14 11 19 20 11 8 6 4 4 7 9 10 9 10 9 10 12 11 10 9 6 6 6 6 7 5 3 3 2 3 2 1 4 4 4 6 8 18 26 18 8 8 12 13 7 3 3 4 6 9 10 8 7 7 5 4 4 6 10 14 15 14 8 3 4 6 5 6 7 5 5 6 6 4 4 7 5 8 10 17 21 25 26 25 25 28 33
11 6 5 16 18 9 9 10 8 7 7 8 8 6 7 9 10 13 12 8 9 12 8 7 7 6 5 7 6 4 4 4 4 4 4 6 5 4 14 21 16 11 14 18 20 11 3 3 5 7 10 11 9 7 6 6 7 8 9 10 11 14 17 11 5 6 6 4 5 7 6 4 6 6 6 7 6 8 9 7 10 17 23 26 26 28 29 32
5 3 3 9 10 8 9 9 9 9 8 8 6 4 8 10 8 9 8 6 12 15 8 5 6 7 6 7 5 4 5 6 6 5 4 5 6 7 13 13 10 14 18 17 18 10 1 3 6 7 9 11 11 11 10 10 11 13 13 12 11 12 15 15 12 9 8 7 7 8 8 7 8 7 8 8 7 9 11 9 10 17 24 27 31 32 32 34
3 4 7 7 5 4 5 8 12 11 9 9 5 4 9 9 7 8 6 6 11 12 6 4 8 10 9 8 4 3 6 6 4 4 5 5 7 9 10 7 6 15 18 13 13 8 1 4 5 6 11 13 13 14 14 12 10 11 13 15 14 13 16 18 17 11 12 10 10 8 10 10 9 8 10 10 9 10 12 11 12 18 23 26 29 30 31 35
5 6 8 7 4 5 8 13 15 12 9 9 5 5 7 8 9 10 7 6 8 6 5 5 9 13 13 11 6 3 5 5 3 4 6 6 7 8 7 5 5 12 14 11 10 6 2 4 5 8 12 14 13 15 16 14 11 10 12 15 17 16 18 19 16 13 14 14 10 10 13 13 10 10 11 13 14 12 11 12 12 15 21 24 26 28 31 35
7 6 7 7 5 9 12 12 10 7 8 9 5 5 6 6 8 10 9 9 9 5 4 7 11 12 11 11 9 6 6 7 6 6 7 6 5 4 3 3 3 8 10 7 6 6 3 4 6 8 9 11 11 12 16 16 14 12 11 12 15 18 19 18 15 11 11 12 8 9 12 10 7 8 10 12 12 8 8 12 14 18 22 23 24 27 32 36
9 9 10 8 6 7 7 7 5 4 5 4 4 5 6 6 8 9 10 14 12 7 5 8 11 11 8 9 10 9 9 8 8 10 10 10 8 6 4 4 5 7 8 5 5 4 3 4 6 6 5 7 7 7 14 17 13 12 14 14 15 16 15 14 12 10 11 13 9 6 7 7 8 7 7 7 6 3 5 9 11 12 15 20 24 28 31 33
10 11 10 7 4 4 4 4 4 4 4 4 5 7 8 9 11 8 7 10 11 10 11 11 10 8 6 8 10 12 15 16 18 21 19 18 18 16 14 13 10 7 5 4 5 3 2 3 5 4 4 7 9 11 11 11 9 11 16 17 16 14 11 10 8 10 14 16 11 9 10 9 8 7 7 8 7 5 3 3 5 6 6 14 22 26 28 31
Wind_Direction
338 337 335 332 330 328 325 323 320 317 315 311 309 307 306 306 306 305 304 303 303 302 301 301 302 304 306 303 298 296 294 292 291 285 276 272 284 283 265 247 235 219 210 207 207 199 184 183 187 187 185 191 201 211 213 213 220 218 200 217 252 251 232 222 213 219 164 158 159 158 154 143 155 161 144 145 136 139 142 126 157 178 172 165 165 163 163 164
339 338 335 333 331 328 326 324 322 321 317 315 312 308 306 305 304 304 303 302 302 301 300 300 300 305 308 303 302 301 298 297 294 286 278 277 272 259 241 218 215 215 210 209 212 208 195 185 184 184 182 192 207 213 217 211 210 212 196 211 233 235 236 280 267 273 235 159 157 161 159 153 158 158 148 142 135 140 128 116 139 129 134 152 157 161 164 165
341 338 335 333 330 327 324 322 321 320 319 317 313 311 309 306 304 303 301 301 301 300 298 298 300 305 307 303 304 305 305 306 298 291 285 285 250 244 239 213 199 202 208 211 215 218 213 194 184 184 183 200 212 205 211 205 200 205 206 237 240 230 262 281 269 270 267 166 148 159 162 154 156 157 151 147 147 153 143 142 144 136 144 152 157 163 166 168
342 339 336 334 331 328 324 322 320 318 317 315 313 312 309 306 305 303 301 300 299 299 297 296 297 303 305 302 305 308 313 314 301 294 113 2 295 243 239 212 195 195 202 210 219 222 218 206 192 187 186 210 223 214 220 219 205 190 201 226 236 206 260 266 261 269 264 163 150 156 158 153 158 160 153 147 144 170 180 171 167 159 156 157 161 165 168 173
342 339 337 335 332 329 326 323 321 317 315 311 310 308 306 306 303 302 301 299 298 297 296 294 295 301 302 300 304 308 319 329 307 159 115 11 25 229 231 204 193 191 195 203 212 206 202 205 195 188 191 215 221 225 235 226 221 212 221 232 244 231 252 266 258 268 262 164 155 155 157 159 161 165 159 154 154 193 193 184 177 169 165 164 165 167 170 177
341 338 337 335 332 330 327 324 321 318 316 312 309 305 303 302 300 301 299 298 296 294 293 292 293 298 299 299 302 302 299 272 258 238 281 318 73 71 218 196 188 185 187 192 194 189 190 193 189 186 194 214 210 218 233 224 216 235 254 241 251 245 246 268 258 257 256 190 169 166 164 159 160 176 172 168 177 192 189 184 179 173 170 167 166 168 172 178
339 337 336 333 331 329 326 323 320 319 317 314 311 307 303 299 298 297 296 297 294 292 291 288 292 295 297 298 296 294 262 257 274 290 276 266 102 77 184 187 181 182 187 188 186 186 191 188 186 188 192 213 217 223 236 231 213 223 261 254 258 255 252 264 261 252 241 218 192 171 160 162 169 181 180 183 193 186 181 178 177 171 168 167 167 171 175 179
338 336 334 332 330 328 325 322 320 319 317 314 312 308 304 299 295 294 293 294 291 291 288 285 290 290 293 294 295 295 267 269 296 302 237 229 200 137 174 184 182 187 192 192 190 192 198 194 194 194 191 214 218 232 237 236 227 226 247 258 263 262 259 264 265 256 238 222 194 168 162 177 180 173 179 194 185 170 171 171 171 166 166 169 171 174 176 180
336 334 332 331 329 327 325 323 321 319 317 314 311 308 305 301 296 292 289 288 287 287 285 284 286 286 289 288 291 290 273 277 314 275 212 212 211 180 176 187 191 197 203 206 204 200 201 202 205 202 201 234 242 262 244 223 240 228 233 250 260 265 267 268 268 257 238 214 181 164 175 187 181 167 173 189 166 162 166 166 167 166 168 171 173 176 178 181
335 332 330 329 327 326 324 323 321 319 318 314 310 307 306 303 300 294 286 283 282 283 282 281 282 282 282 278 257 254 270 269 279 288 212 215 225 205 192 191 195 201 208 214 215 211 210 213 215 213 228 257 250 257 247 230 248 246 247 261 264 270 274 272 268 252 229 198 176 169 178 181 172 163 168 173 162 162 161 162 167 169 171 174 176 178 179 183
337 334 332 330 328 326 323 321 319 318 316 312 309 307 308 307 305 297 284 276 275 279 279 277 279 277 275 266 226 230 261 263 254 247 197 214 228 222 210 198 198 202 206 211 216 221 224 227 220 211 226 236 242 267 258 238 246 257 265 277 273 277 279 268 260 237 207 186 178 165 146 164 169 176 180 166 164 166 161 161 168 171 174 176 177 179 180 184
341 338 336 334 331 328 325 322 319 317 315 311 309 308 311 312 307 295 281 272 271 275 275 275 275 270 272 261 243 244 260 266 245 213 210 241 241 238 223 211 210 209 213 216 219 227 231 234 221 205 208 215 234 276 270 270 280 276 270 278 282 299 290 259 245 205 186 182 169 147 104 170 186 198 175 164 165 165 161 162 168 172 176 177 179 181 182 184
344 341 340 338 335 333 329 325 321 318 314 311 311 312 315 312 303 291 280 274 270 271 273 273 272 268 265 255 253 256 257 255 248 235 241 257 251 244 228 219 218 217 225 231 230 230 230 234 224 218 222 229 253 261 286 308 312 296 267 238 286 323 304 271 244 192 185 171 160 151 145 201 214 194 166 164 163 161 160 164 169 173 177 179 182 184 185 186
344 343 342 340 339 337 333 330 325 321 316 314 315 318 318 309 300 293 287 279 270 268 269 266 266 263 251 252 260 266 260 253 253 247 242 247 246 238 227 222 222 223 229 237 240 238 237 237 230 229 233 236 254 275 299 313 304 298 282 251 276 296 286 307 297 179 179 168 164 164 203 204 219 178 165 166 165 161 162 167 170 174 178 181 184 186 188 188
343 343 342 341 340 338 337 335 330 324 319 316 320 323 318 308 305 305 295 283 272 265 262 257 253 247 252 263 268 272 265 252 248 244 238 237 234 226 218 214 221 226 229 235 239 241 245 238 222 223 236 237 247 273 305 311 301 321 252 284 297 219 259 324 320 183 178 174 170 169 186 200 210 175 170 169 168 165 164 169 172 174 179 182 185 188 190 191
342 342 342 342 340 338 337 337 334 328 322 321 324 326 320 313 315 317 309 302 291 259 247 247 241 232 255 276 275 267 253 245 246 244 237 231 224 217 209 208 222 228 230 232 233 239 244 233 218 219 227 230 216 220 296 304 311 335 207 252 246 231 271 326 309 215 181 165 178 180 151 183 193 175 175 171 171 169 166 171 174 176 180 182 186 190 190 192
341 340 341 341 340 338 336 338 337 330 325 326 328 329 322 322 330 330 11 34 17 288 229 222 217 230 249 262 271 256 245 251 259 256 244 230 219 213 204 209 222 226 231 234 236 240 237 220 210 223 223 209 161 167 244 257 255 291 223 246 238 232 265 276 307 257 181 166 183 178 151 184 176 170 176 176 175 172 170 175 177 178 181 183 187 190 191 192
341 339 339 340 340 338 337 338 337 331 330 332 335 336 315 321 343 324 70 12 2 5 232 196 157 201 256 252 255 249 252 263 247 240 241 232 217 210 202 205 215 220 226 234 241 236 228 216 196 210 222 201 186 171 206 230 207 216 215 238 264 250 239 231 277 250 176 184 183 156 158 186 171 168 177 180 179 177 177 178 179 180 181 184 187 190 193 194
341 339 338 338 338 338 337 339 338 334 333 332 339 339 312 320 333 249 276 326 324 283 255 209 178 202 269 257 252 249 259 257 233 225 222 224 214 205 201 205 212 214 205 205 239 218 204 206 192 209 222 204 204 191 211 234 187 198 204 212 256 266 251 206 250 250 178 192 199 171 173 172 166 176 180 182 182 182 181 178 180 182 182 185 188 192 194 195
340 338 337 336 337 336 337 339 338 336 338 342 345 351 358 354 343 290 316 311 296 273 269 254 230 242 259 260 259 262 270 267 255 237 223 228 213 199 199 203 208 209 189 166 213 202 187 197 214 212 210 200 211 205 212 236 235 226 213 239 249 257 267 203 221 264 185 180 219 193 179 175 173 182 182 180 181 183 183 181 184 185 184 186 189 194 195 198
339 338 337 336 335 334 336 339 337 338 348 354 356 20 39 16 1 321 322 310 297 284 270 267 256 252 258 258 258 267 283 288 264 231 211 217 206 191 193 195 192 204 196 183 192 190 185 210 229 209 188 189 203 202 204 226 239 240 228 252 263 245 262 232 188 275 198 178 228 188 169 191 182 182 181 177 180 187 186 184 188 189 188 190 191 194 197 200
339 337 337 336 334 333 334 338 338 342 355 352 0 41 34 10 353 326 321 299 293 290 273 271 264 257 260 259 258 261 271 284 263 234 211 200 200 188 183 185 186 197 193 181 186 198 205 225 226 197 175 183 206 207 203 221 231 237 229 237 259 245 265 268 212 255 212 181 229 177 175 207 193 183 180 181 187 191 190 188 188 189 189 191 194 196 198 199
337 337 337 336 333 332 333 338 337 344 353 347 2 31 10 355 344 331 323 282 287 288 270 263 255 252 255 254 251 246 237 243 247 237 216 191 193 188 177 178 189 190 185 186 192 198 216 229 209 181 171 185 220 227 208 235 239 230 224 214 248 245 244 266 242 228 205 201 210 179 180 211 193 186 188 192 195 194 195 194 192 190 189 192 195 197 197 197
335 336 337 335 331 330 332 338 335 339 348 346 356 6 354 342 339 338 330 285 279 283 269 263 250 247 249 248 241 218 212 224 228 226 212 187 181 184 183 182 180 188 198 196 200 211 230 226 181 171 180 189 213 231 211 230 246 240 230 213 242 245 217 229 278 357 280 250 205 151 134 235 180 189 202 201 201 202 200 198 198 198 196 196 197 197 198 196
335 336 336 333 329 328 331 338 331 333 345 351 311 337 338 332 338 345 337 291 275 278 275 267 241 242 244 236 224 205 207 224 224 220 212 196 184 175 184 187 179 197 203 190 198 222 236 217 171 174 196 197 208 226 213 210 234 255 240 217 235 248 232 233 301 18 350 300 259 146 159 263 200 194 202 196 201 207 202 199 203 204 203 202 200 199 200 199
337 337 337 332 328 327 329 337 334 334 342 336 305 322 324 323 333 344 344 300 290 265 244 236 214 231 225 197 187 180 188 236 229 222 213 204 196 183 176 181 179 202 195 179 200 228 219 190 171 182 197 201 211 224 214 197 213 253 232 198 229 246 243 242 224 80 237 270 259 178 181 232 211 205 206 195 200 205 200 201 206 205 204 205 203 202 201 201
340 339 338 331 328 330 330 331 329 332 337 323 319 326 325 322 324 336 0 342 295 212 160 193 198 196 187 176 168 159 143 231 221 221 211 201 196 191 187 169 174 198 175 155 219 212 171 175 187 196 193 200 212 219 209 186 200 246 221 169 224 238 232 234 200 181 229 264 283 239 198 201 202 208 206 197 202 206 203 205 208 207 207 207 206 205 203 202
343 340 338 330 326 330 326 321 325 332 329 319 324 327 330 326 313 338 66 327 291 169 144 188 188 162 164 167 169 171 196 146 166 221 209 197 187 187 195 188 179 184 167 167 210 194 156 180 195 195 197 209 211 211 201 184 209 246 215 184 231 230 216 217 192 201 231 252 271 259 217 226 260 223 203 198 201 206 209 210 208 207 208 208 208 207 206 205
343 342 341 331 323 325 319 317 327 331 317 315 320 323 336 333 316 56 104 258 286 309 135 165 165 150 145 158 183 202 252 145 120 205 194 192 191 186 199 200 184 171 178 187 205 193 167 193 195 189 205 217 206 207 198 191 219 238 202 220 262 253 215 196 189 191 173 193 239 245 205 206 269 242 187 194 205 208 211 213 211 209 209 209 209 208 208 207
343 344 342 333 328 325 319 322 331 325 310 312 317 327 343 339 65 89 199 237 292 291 135 131 87 136 142 146 201 229 253 294 327 148 167 183 192 194 204 193 181 155 184 202 211 211 214 204 195 190 210 209 188 204 205 199 215 215 170 229 272 282 273 238 188 151 151 221 235 237 211 187 248 252 187 189 200 204 209 212 215 214 212 212 210 209 208 207
342 344 342 335 333 332 328 333 339 326 310 308 314 328 338 342 77 150 216 266 308 272 50 48 30 56 139 173 228 235 245 290 318 143 157 169 183 195 194 174 173 151 194 221 218 220 233 218 200 198 206 197 179 206 213 203 212 210 153 176 246 289 311 302 288 128 207 239 235 232 216 190 227 250 209 200 199 200 203 206 209 212 213 213 212 210 209 207
343 344 341 335 336 340 344 351 351 332 309 302 307 319 9 66 256 210 240 333 341 290 21 22 1 357 303 282 268 217 224 257 230 165 173 170 176 195 193 184 176 170 202 214 202 215 225 221 226 224 206 193 177 202 217 208 207 205 173 158 185 251 267 239 232 199 224 244 240 218 203 202 229 231 208 206 203 202 205 206 207 207 209 211 211 211 209 208
344 345 338 336 343 357 7 2 356 345 320 289 283 311 87 165 229 211 234 286 310 51 34 9 329 314 281 286 281 200 195 255 240 191 190 183 183 197 202 205 188 175 189 190 178 190 227 233 222 227 222 193 180 181 204 213 204 198 187 171 179 195 210 222 235 263 255 259 251 206 185 214 249 230 206 202 204 206 207 209 210 209 208 208 209 209 208 207
345 345 335 338 355 11 4 357 352 348 334 257 214 116 129 207 235 198 207 252 301 29 28 352 322 306 263 242 247 172 167 247 229 195 197 187 191 201 202 207 200 182 124 149 180 188 204 234 213 206 203 183 189 195 189 179 192 205 186 174 196 197 190 203 202 220 239 258 262 215 181 200 214 221 206 197 205 208 206 210 213 212 211 209 208 207 206 207
344 344 336 343 4 8 354 350 344 343 331 268 200 165 196 210 235 204 205 285 319 358 353 333 314 316 319 270 273 38 27 273 212 197 203 190 200 204 197 201 199 184 142 167 198 187 204 236 225 209 199 175 191 202 177 163 197 210 168 177 211 190 169 223 212 186 192 246 251 218 209 215 218 244 216 197 207 209 208 212 213 215 214 209 206 206 206 207
340 343 343 356 33 359 350 346 338 335 324 294 224 207 223 225 188 216 341 7 341 341 342 334 352 14 339 310 334 17 9 344 229 215 217 198 212 208 201 203 194 191 186 183 199 166 197 235 223 193 209 200 197 190 175 178 189 180 171 193 202 172 180 226 249 221 137 243 247 209 234 264 273 274 247 204 207 209 210 215 215 214 211 204 203 206 208 208
341 341 342 7 32 352 344 341 331 320 310 298 232 233 259 304 298 301 16 35 351 347 356 358 3 355 322 319 343 7 356 340 2 358 252 212 225 206 204 213 197 200 200 189 218 193 180 246 230 178 209 224 208 201 201 193 178 161 194 193 164 181 207 200 212 251 226 238 265 233 213 214 199 248 249 197 202 213 214 216 217 214 207 200 204 208 209 209
338 336 336 9 9 347 341 337 323 295 231 160 255 272 314 310 319 336 346 354 348 345 2 268 264 291 352 346 328 355 355 341 3 359 311 267 271 205 199 204 197 203 201 194 223 225 173 256 267 198 201 219 204 202 236 227 209 208 197 176 156 189 212 180 180 220 217 230 270 273 232 212 200 222 213 193 201 211 213 215 217 215 206 203 207 210 211 210
336 333 329 356 354 346 343 333 309 215 159 175 242 271 301 293 306 310 315 327 330 301 296 223 233 315 2 347 322 340 345 322 328 339 328 308 310 316 282 228 207 201 198 192 203 215 177 209 267 227 196 198 187 189 214 230 229 229 173 179 179 176 192 189 181 191 198 221 252 274 260 234 225 208 184 194 206 207 209 211 215 214 208 207 210 212 211 208
340 331 313 346 352 348 348 340 208 159 152 229 228 265 295 303 304 305 310 316 313 276 294 269 307 323 327 326 320 318 311 298 305 305 292 319 321 350 11 358 322 255 209 200 197 199 186 193 233 271 212 198 191 192 203 209 213 213 198 199 203 187 180 197 203 174 169 191 205 237 253 253 248 208 181 192 205 208 209 209 213 214 210 211 214 213 209 206
344 323 302 346 356 355 360 25 129 117 263 258 286 272 284 296 292 295 296 293 288 275 272 271 280 280 280 305 303 288 285 281 282 272 256 293 282 296 28 24 5 341 269 219 206 198 188 178 208 235 234 209 209 205 201 202 204 205 206 205 201 184 139 181 229 256 153 186 183 198 248 261 249 202 189 196 204 210 211 210 217 218 212 213 217 216 211 207
343 290 313 349 3 2 7 34 45 9 337 320 333 315 314 313 299 299 290 286 283 258 253 262 255 261 263 268 274 279 291 278 267 259 230 252 250 239 13 13 3 345 331 281 244 216 200 177 201 224 231 217 219 216 201 202 205 204 207 203 189 178 160 184 218 225 193 221 177 170 248 267 251 204 191 198 204 211 212 207 214 221 219 219 219 218 214 210
323 300 321 354 10 6 12 47 16 16 349 335 340 328 327 328 322 332 327 318 314 282 275 270 247 269 276 271 292 297 319 302 268 276 264 276 317 29 21 10 1 352 357 352 340 313 246 206 198 227 255 249 238 245 237 207 200 204 212 198 189 202 198 192 193 173 191 212 167 198 252 266 265 226 205 206 206 218 217 207 212 221 223 224 222 219 215 212
319 309 322 1 14 15 26 42 13 4 328 340 348 331 332 339 337 339 336 330 324 304 300 296 294 331 327 337 338 312 347 338 288 4 353 292 332 12 17 8 358 353 355 347 353 351 316 239 196 207 234 245 245 254 257 224 194 204 214 204 206 206 192 183 145 142 211 207 167 191 238 246 271 293 257 216 194 239 239 212 214 223 225 228 226 221 217 213
329 316 323 356 7 34 49 26 21 354 332 343 343 333 342 340 329 333 325 308 312 325 319 305 311 321 321 350 352 323 335 324 319 8 352 319 323 350 7 1 348 333 337 345 351 343 283 245 232 212 215 220 216 218 222 204 188 214 217 210 211 200 187 184 152 169 228 218 166 188 221 250 287 313 304 236 194 233 259 218 213 223 228 231 229 225 221 213
335 318 314 346 355 21 26 17 21 357 336 342 335 329 346 331 317 332 332 314 340 353 332 299 310 323 346 11 356 328 340 338 332 332 322 337 333 327 353 348 330 327 345 354 356 344 247 233 256 238 238 234 215 209 199 172 186 213 214 211 211 203 193 183 170 193 199 179 197 210 192 218 272 283 285 267 228 236 251 223 204 215 222 226 227 226 224 216
335 310 311 339 343 346 353 3 10 355 332 334 329 304 324 321 311 333 339 328 347 350 324 302 6 15 5 7 349 317 335 338 325 319 323 339 316 307 337 335 320 345 357 357 353 345 269 285 283 261 273 265 238 219 194 178 200 210 205 205 208 206 198 193 206 200 153 159 225 219 179 199 245 253 256 260 252 249 247 230 217 222 221 222 224 224 221 217
303 292 313 328 327 332 341 332 333 334 324 324 316 280 308 319 320 335 341 330 338 346 337 330 5 3 348 351 352 312 328 337 324 323 333 335 319 322 340 334 331 359 3 352 345 347 249 267 290 301 308 297 268 237 207 192 199 197 196 202 202 204 203 204 212 189 157 191 219 188 179 202 223 236 242 242 237 241 248 250 247 241 233 226 223 221 217 215
287 284 305 323 314 294 297 300 310 320 319 319 309 283 309 326 325 324 333 331 321 332 348 327 333 342 338 335 334 305 316 323 308 320 324 321 326 330 333 326 345 4 1 341 330 338 280 267 310 326 316 305 282 247 223 214 207 195 199 200 196 204 209 210 213 193 185 209 206 171 190 208 210 217 228 237 237 236 249 266 264 247 238 229 220 215 214 214
291 288 302 315 298 284 282 285 302 314 310 310 299 292 314 322 317 319 324 317 298 298 352 335 322 328 327 325 323 297 287 291 285 300 305 304 324 333 313 317 341 347 343 327 321 347 348 299 316 332 320 302 285 248 227 225 219 214 216 205 200 207 209 209 210 195 196 218 205 177 198 221 235 226 222 238 251 252 253 257 251 240 235 228 216 211 212 214
292 295 303 306 292 288 286 287 300 299 293 299 293 307 322 310 306 317 309 294 282 280 330 332 319 317 317 321 315 292 290 299 293 295 292 282 281 278 269 290 318 326 328 313 299 324 343 297 309 338 326 295 295 263 234 228 223 227 228 216 206 207 210 212 202 181 193 209 204 188 201 230 248 236 235 253 252 228 244 259 260 252 240 226 216 213 215 214
298 299 303 302 289 294 297 288 286 280 284 299 304 312 314 298 301 317 309 295 294 302 318 321 313 311 317 312 302 300 311 314 302 297 292 278 269 265 260 261 265 268 277 298 296 271 251 284 305 337 317 285 303 305 267 230 217 234 230 216 207 200 204 216 203 187 196 199 199 207 209 220 226 201 206 242 233 202 216 319 330 322 278 236 225 220 220 217